Find Kosmos-894

NORAD ID: 9846 Int'l Des: 1977-013 Owner: VMF Country: SU operational
LEOCIRCULARPOLAR

Live Position

Loading 3D Globe...

About Kosmos-894

Description loading...

Upcoming Passes

Passes for default location (London). Set your location on the main map for personalized predictions.

Altitude History

Loading altitude history...

Two-Line Element Set

1 9846U 77013A 26106.83140036 .00000075 00000-0 63162-4 0 9999
2 9846 82.9421 142.5685 0030360 22.6937 150.8274 13.74203683463745
Epoch: Apr 16, 2026 • Age: 10 hours

Current Status

Altitude 983.2 km
Velocity 7.37 km/s
Sub-Earth Point 72.31°N, 129.69°W
Type other

Most Searched